This is the latest recevied weather packets stored in our database for station/object KU9TRY. If no packets are shown the sender has not sent any weather packets the latest 10 day(s).
| Time | Temp. | Humidity | Pressure | Rain* | Wind** | Luminosity | Snow |
|---|---|---|---|---|---|---|---|
| 1788094444 | 22.22° C | 93% | 1021.6 hPa | 0 mm | - | 75 W/m² | - |
| 1788094142 | 22.22° C | 93% | 1021.8 hPa | 0 mm | - | 72 W/m² | - |
| 1788093837 | 21.67° C | 94% | 1021.6 hPa | 0 mm | - | 68 W/m² | - |
| 1788093534 | 21.67° C | 94% | 1021.8 hPa | 0 mm | - | 65 W/m² | - |
| 1788093230 | 21.11° C | 96% | 1021.6 hPa | 0 mm | - | 62 W/m² | - |
| 1788092928 | 20.56° C | 97% | 1021.5 hPa | 0 mm | - | 57 W/m² | - |
| 1788092622 | 20.56° C | 98% | 1021.4 hPa | 0 mm | - | 53 W/m² | - |
| 1788092317 | 20.56° C | 98% | 1021.4 hPa | 0 mm | - | 50 W/m² | - |
| 1788092017 | 20° C | 99% | 1021.2 hPa | 0 mm | - | 46 W/m² | - |
| 1788091712 | 20° C | 99% | 1021.1 hPa | 0 mm | - | 46 W/m² | - |
| 1788091408 | 20° C | 99% | 1021.1 hPa | 0 mm | - | 38 W/m² | - |
| 1788091104 | 20° C | 99% | 1021 hPa | 0 mm | - | 34 W/m² | - |
| 1788090801 | 20° C | 99% | 1021.2 hPa | 0 mm | - | 30 W/m² | - |
| 1788090496 | 20° C | 99% | 1021 hPa | 0 mm | - | 26 W/m² | - |
| 1788090192 | 20° C | 99% | 1021.2 hPa | 0 mm | - | 21 W/m² | - |
| 1788089886 | 19.44° C | 99% | 1020.8 hPa | 0 mm | - | 18 W/m² | - |
| 1788089581 | 19.44° C | 99% | 1021 hPa | 0 mm | - | 14 W/m² | - |
| 1788089277 | 20° C | 99% | 1020.8 hPa | 0 mm | - | 10 W/m² | - |
| 1788088973 | 19.44° C | 99% | 1021 hPa | 0 mm | - | 7 W/m² | - |
| 1788088669 | 19.44° C | 98% | 1021 hPa | 0 mm | - | 5 W/m² | - |
| 1788088364 | 19.44° C | 98% | 1020.8 hPa | 0 mm | - | 2 W/m² | - |
| 1788088064 | 19.44° C | 98% | 1020.7 hPa | 0 mm | - | 1 W/m² | - |
| 1788087761 | 19.44° C | 99% | 1020.7 hPa | 0 mm | - | 1 W/m² | - |
| 1788087460 | 19.44° C | 98% | 1020.5 hPa | 0 mm | - | 0 W/m² | - |
| 1788087156 | 19.44° C | 98% | 1020.7 hPa | 0 mm | - | 0 W/m² | - |
* Rain latest hour (hover to see other rain measurements)
** Current wind speed in m/s (hover to see current wind gust speed)